Temperature
21 21 20 20 20 19 19 19 19 19 19 18 18 18 18 18 18 18 18 18 18 18 18 18 18 17 17 17 17 17 17 17 17 17 17 17 17 17 17 17 17 17 17
20 20 20 20 20 19 19 19 19 19 18 18 18 18 18 18 18 18 18 18 18 18 17 17 17 17 17 17 17 17 17 17 17 17 17 17 17 17 17 17 17 17 17
21 20 20 20 19 19 19 19 19 19 18 18 18 18 18 18 18 18 18 18 17 17 17 17 17 17 17 17 17 17 17 17 17 17 17 17 17 17 17 17 17 17 17
20 20 20 20 19 19 19 19 19 18 18 18 18 18 18 18 18 18 18 18 17 17 17 17 17 17 17 17 17 17 17 17 17 17 17 17 18 17 17 17 17 17 17
21 20 20 20 19 19 19 19 18 18 18 18 18 18 18 18 18 18 18 17 17 17 17 17 17 17 17 17 17 17 17 17 17 17 17 17 17 17 18 18 18 18 18
20 20 20 20 19 19 19 18 18 18 18 18 18 18 18 18 18 17 17 17 17 17 17 17 17 17 17 17 17 17 17 17 17 17 17 17 17 17 18 18 18 18 18
20 20 20 19 19 19 18 18 18 17 17 17 17 17 17 18 18 18 18 17 17 17 17 17 17 17 17 16 16 16 17 17 17 17 17 17 17 17 17 18 18 18 18
20 20 20 19 19 19 18 18 18 17 17 17 17 17 17 17 17 18 17 17 17 17 17 17 17 17 17 17 16 16 16 16 17 17 17 17 17 17 17 17 17 17 17
20 20 20 19 19 19 18 18 18 17 17 17 17 17 17 17 17 17 17 17 17 17 17 17 17 17 17 16 16 16 16 16 16 16 17 17 17 17 17 17 17 17 17
20 20 19 19 19 18 18 18 18 17 17 17 17 17 17 17 17 17 17 17 17 17 17 17 17 17 16 16 16 16 16 16 16 16 16 16 16 16 16 17 17 17 16
20 20 19 19 19 18 18 18 18 17 17 17 17 17 17 17 17 17 17 17 17 17 17 17 16 16 16 16 16 16 16 16 16 16 16 16 16 16 16 16 16 16 16
20 20 19 19 18 18 18 17 18 17 17 17 17 17 17 17 17 17 16 16 16 16 16 16 16 16 16 16 16 16 16 16 16 16 16 16 16 16 16 16 15 15 15
20 20 19 19 18 18 18 17 17 17 17 17 17 17 17 17 17 16 16 16 16 16 16 16 16 16 16 16 16 16 16 16 15 15 15 15 15 15 15 15 15 15 15
20 20 19 19 19 18 18 18 17 17 17 17 17 17 17 17 17 16 16 16 16 16 16 16 16 16 16 15 15 15 15 15 15 15 15 15 14 14 14 14 14 14 14
19 19 19 19 19 18 18 18 18 17 17 17 17 17 17 17 16 16 16 16 16 16 16 16 16 15 15 15 15 15 15 15 14 14 14 14 13 13 13 13 13 13 13
19 19 19 19 19 18 18 18 18 17 17 17 17 17 16 16 16 16 16 16 16 15 15 15 15 15 15 15 14 14 14 14 13 13 13 13 12 12 12 12 12 12 12
19 19 19 19 19 18 18 18 18 17 17 17 17 16 16 16 16 16 15 15 15 15 15 15 14 14 14 14 14 13 13 13 13 12 12 12 12 12 12 11 11 11 11
19 19 19 18 18 18 18 18 18 17 17 17 16 16 16 16 16 15 15 15 15 14 14 14 14 13 13 13 13 12 12 12 12 11 11 11 11 11 11 10 10 10 10
19 18 18 18 18 18 18 17 17 17 17 17 16 16 16 16 16 15 15 14 14 14 13 13 13 13 12 12 12 12 11 11 11 10 10 10 10 10 9 9 9 9 9
18 18 18 18 18 17 17 17 17 17 16 16 16 16 16 15 15 14 14 13 13 13 12 12 11 11 11 11 11 11 11 10 10 10 9 9 9 8 8 8 8 8 8
17 17 17 17 17 17 17 16 16 16 16 16 15 15 15 14 14 13 13 13 12 12 11 11 11 10 10 10 10 10 10 10 9 9 9 8 8 7 7 7 7 6 6
16 16 16 16 16 16 16 16 15 15 15 15 14 14 14 13 13 13 12 12 11 11 10 10 10 10 9 9 9 9 9 9 8 8 8 7 7 7 6 6 6 6 5
15 15 15 15 15 15 15 15 14 14 14 14 13 13 13 12 12 12 11 11 10 10 10 9 9 9 9 9 8 8 8 8 7 7 7 6 6 6 6 5 5 5 5
14 14 14 14 14 14 14 14 13 13 13 13 12 12 12 11 11 10 10 10 10 9 9 9 9 8 8 8 8 7 7 7 6 6 6 6 5 5 5 5 4 4 4
13 13 13 13 13 13 12 12 12 12 12 12 11 11 10 10 10 9 9 9 9 9 9 8 8 8 7 7 7 6 6 6 6 5 5 5 5 4 4 4 3 3 3
12 12 12 12 11 12 11 11 11 11 11 11 10 10 10 9 9 9 8 8 8 8 7 7 7 7 6 6 6 5 5 5 5 5 5 4 4 3 3 3 2 2 2
Wind_Speed
9 10 12 12 11 10 11 12 11 9 8 6 6 5 5 4 4 4 8 9 9 8 6 4 4 4 4 4 4 3 3 2 2 3 2 3 1 2 3 4 5 7 11
8 9 10 11 12 12 11 11 11 10 9 7 6 5 5 4 4 3 6 9 9 8 6 5 4 4 4 4 3 3 3 1 2 4 3 2 3 3 2 3 5 5 7
12 11 11 11 11 11 12 12 11 10 10 9 6 5 5 4 3 4 4 5 8 8 7 6 5 4 4 4 3 4 4 2 1 2 4 4 3 2 3 3 4 5 5
10 10 11 11 12 12 11 10 10 10 9 10 9 10 8 6 6 5 5 4 6 7 8 7 6 5 4 4 4 4 3 4 2 1 0 2 4 3 1 3 2 4 6
9 10 10 11 10 10 11 10 10 9 9 9 11 10 7 6 5 5 6 5 4 5 7 8 6 5 4 4 4 4 4 3 3 2 1 2 2 2 3 2 3 3 4
7 8 8 8 7 8 9 9 10 9 9 10 10 10 10 9 9 7 7 5 3 3 5 7 5 5 4 4 5 5 5 4 4 3 2 2 2 1 2 2 3 3 4
7 8 9 8 8 9 9 10 10 9 9 10 10 10 10 11 11 9 8 6 4 4 5 5 5 4 4 4 4 4 4 4 4 3 2 2 2 2 3 3 1 2 3
7 9 9 9 9 9 9 10 10 9 10 10 9 9 9 8 7 8 7 7 5 5 6 6 6 5 5 4 4 3 3 3 3 3 3 2 0 1 2 3 3 0 2
8 8 8 8 8 9 9 10 10 9 9 9 9 8 8 8 8 7 6 5 5 5 7 7 6 5 5 5 5 3 2 3 3 2 2 1 0 1 1 2 3 3 1
9 8 8 8 7 8 8 9 9 9 8 9 9 8 8 8 8 7 7 6 6 5 7 7 6 6 5 5 4 3 2 3 2 2 2 1 0 1 2 2 2 2 4
9 10 9 8 8 7 8 9 9 9 8 8 7 8 7 7 8 7 7 6 5 6 7 6 6 6 5 5 4 3 3 3 2 1 2 1 1 2 2 2 2 2 2
9 9 9 9 8 8 8 8 9 9 9 9 8 8 8 8 8 7 7 7 6 6 6 6 5 5 4 5 5 4 3 3 3 2 3 2 2 3 3 3 3 2 2
8 9 9 9 9 9 8 8 8 9 9 9 9 9 9 9 8 8 7 7 7 6 6 6 5 4 4 4 4 4 4 4 4 4 4 3 4 4 3 4 3 3 3
9 10 10 9 10 9 9 9 8 8 9 10 10 10 9 9 8 7 7 7 7 7 7 6 6 5 5 5 5 6 6 7 6 6 6 6 5 4 4 4 4 3 4
9 11 11 10 9 9 9 9 9 9 9 10 10 9 9 9 8 8 7 7 7 8 7 7 7 6 5 4 6 7 7 8 8 8 7 7 9 8 6 5 4 4 4
8 8 10 11 11 11 10 10 9 9 9 10 9 8 9 9 9 9 9 9 9 9 9 9 8 7 5 7 10 9 7 8 8 7 7 8 9 10 11 11 10 8 5
7 7 8 10 10 10 10 10 10 9 10 9 9 9 9 9 9 10 9 10 10 11 11 10 10 9 8 12 13 13 9 9 8 7 7 7 8 9 7 9 12 12 13
5 5 7 7 7 7 8 8 9 10 10 9 9 9 9 9 10 10 11 11 10 11 11 10 10 10 11 14 15 15 11 11 10 9 8 8 7 8 7 7 8 8 7
2 2 4 6 6 7 8 9 9 9 9 9 9 9 10 11 11 11 12 12 12 12 11 10 10 11 11 13 14 13 10 10 9 8 7 7 7 9 10 8 7 7 7
3 3 4 5 7 7 8 9 9 10 10 10 10 10 11 12 12 12 13 12 13 13 12 12 11 11 11 13 13 12 8 8 6 6 6 8 7 8 8 6 6 6 5
4 4 6 6 5 6 9 10 10 9 10 11 12 12 12 12 13 13 12 13 13 13 13 13 11 11 11 13 14 11 7 6 6 4 3 3 7 7 8 6 4 3 3
5 6 7 6 5 6 10 12 11 11 12 13 14 13 12 12 13 13 12 12 14 14 13 12 10 8 8 10 12 13 11 8 6 3 2 3 6 7 8 6 6 8 7
5 6 8 9 7 6 9 13 12 12 14 15 15 14 14 12 12 13 13 12 11 11 10 9 8 6 6 7 11 12 12 11 6 3 5 6 8 8 7 9 10 8 6
6 7 9 10 9 9 10 12 12 13 16 16 15 14 14 13 12 10 9 9 9 10 9 8 7 6 5 5 5 6 6 8 7 5 7 10 12 9 9 8 7 6 4
7 8 10 11 11 11 12 13 13 15 17 17 15 14 13 13 13 11 9 8 6 8 10 7 7 7 5 3 5 5 4 4 4 5 6 7 6 7 6 5 5 5 5
9 11 12 13 13 13 14 12 12 15 17 15 14 12 11 11 11 13 12 16 13 14 14 11 9 6 7 7 8 8 8 9 9 8 6 5 5 5 4 4 4 4 4
Wind_Direction
158 153 156 159 159 162 164 164 164 163 156 154 151 145 150 149 151 155 154 150 144 140 134 133 131 127 134 147 141 125 109 101 113 91 56 5 349 205 207 195 190 200 206
149 155 155 159 167 171 172 168 169 164 162 163 157 151 149 152 157 155 149 150 146 145 147 140 135 131 126 124 122 116 111 91 122 127 111 44 341 315 236 204 201 205 205
164 164 164 166 169 174 178 175 172 169 168 160 143 134 123 115 125 144 152 153 150 149 147 142 136 136 134 140 141 132 128 123 75 133 143 147 212 277 308 241 215 205 207
165 169 169 172 177 180 176 170 170 172 169 160 157 158 160 164 174 166 160 153 148 149 149 142 137 135 136 140 144 132 127 125 102 50 94 162 158 156 269 312 266 226 219
173 173 174 175 175 173 173 174 168 170 167 164 164 164 166 165 155 147 148 150 151 152 149 142 133 129 130 136 127 116 112 120 130 124 98 75 74 110 142 240 286 277 247
178 171 165 158 159 163 168 171 171 174 171 169 168 167 166 160 154 156 158 158 155 154 153 142 135 134 133 140 137 127 124 123 120 117 114 127 129 174 160 192 238 252 266
172 168 160 160 163 166 166 168 171 175 174 171 170 169 165 163 165 167 167 163 162 163 169 149 142 141 147 148 137 126 126 133 128 132 129 134 163 175 159 156 203 255 285
176 173 169 168 168 168 166 167 173 175 175 172 169 165 161 164 169 169 165 169 173 172 166 154 150 148 148 143 137 131 137 133 133 125 122 116 124 131 150 161 153 109 320
174 173 165 165 165 164 167 170 170 170 172 168 161 162 161 162 166 164 160 165 167 166 160 157 153 151 148 143 137 130 143 140 141 134 122 122 105 77 99 125 145 151 200
171 167 164 167 167 162 160 162 162 163 160 163 169 168 163 160 157 154 158 163 164 157 157 159 158 155 151 146 137 134 139 136 143 146 123 97 66 58 63 77 93 139 165
172 166 165 162 156 152 156 157 159 157 162 168 168 163 162 155 147 150 155 154 153 156 161 163 161 159 156 151 145 154 147 144 137 113 108 74 61 54 40 54 62 70 127
169 165 160 150 150 153 157 162 165 168 172 172 167 167 164 153 149 151 152 148 146 150 151 150 149 151 147 145 148 156 135 128 123 100 86 60 72 56 41 49 44 40 54
159 161 161 160 163 163 160 165 173 174 175 170 168 168 164 158 157 156 150 145 142 138 134 131 131 127 119 115 124 127 112 103 94 88 85 65 74 63 53 52 43 32 38
170 167 168 169 170 168 166 169 174 175 171 168 168 168 169 164 158 151 144 138 133 129 124 116 113 109 101 96 98 101 97 91 82 78 76 67 68 70 61 56 41 39 36
171 177 174 171 173 172 171 171 173 170 167 164 167 170 164 155 147 142 136 129 123 120 114 107 97 92 94 100 109 107 106 101 92 80 74 70 70 66 62 64 50 50 46
175 178 177 173 178 179 174 171 168 164 158 161 165 158 150 146 143 140 131 121 112 103 98 95 93 84 85 92 100 106 104 103 101 92 79 72 56 55 56 59 57 55 52
168 169 181 183 181 178 171 171 168 157 153 155 154 150 147 141 137 133 123 118 113 107 100 94 90 84 76 83 93 96 97 96 94 89 80 73 57 47 47 50 50 44 44
168 173 177 176 178 171 165 162 156 151 150 151 150 146 139 133 129 124 120 115 110 105 101 95 90 85 75 82 89 91 89 87 84 83 81 76 53 42 49 53 47 36 26
126 164 166 154 159 158 154 149 148 145 144 146 145 141 136 132 128 125 122 118 111 105 99 95 89 85 73 75 83 90 90 88 80 78 77 77 63 47 54 56 44 26 8
77 105 122 126 142 151 144 140 141 139 141 138 131 126 125 124 124 123 119 115 111 108 102 91 84 83 77 73 80 87 96 95 88 71 58 60 57 48 56 60 50 26 353
80 99 113 121 134 140 136 133 129 129 127 120 116 113 111 113 116 115 116 117 115 110 103 96 84 77 73 67 71 80 90 101 95 75 43 23 35 46 53 60 60 26 9
89 104 113 113 112 124 131 128 124 121 115 110 107 105 105 108 110 112 112 114 117 112 107 99 85 68 61 61 65 69 75 85 87 66 22 10 35 52 55 57 49 41 42
102 104 110 103 96 104 120 122 120 118 112 106 103 100 96 94 98 105 110 111 112 114 110 105 96 78 58 51 56 62 63 62 65 46 45 56 58 54 47 46 47 45 44
103 106 105 104 97 95 99 108 112 113 110 107 103 100 98 91 84 85 93 105 111 114 113 111 105 91 69 52 43 44 47 44 45 40 44 53 57 58 51 44 42 41 41
98 101 104 104 101 100 98 102 107 109 108 106 103 99 95 96 88 78 70 86 86 118 123 122 123 115 94 63 69 64 46 43 52 60 53 50 48 46 40 37 31 24 20
100 101 101 101 100 98 96 97 103 109 111 109 108 107 105 102 102 98 82 60 75 88 98 110 113 97 105 95 67 57 63 69 78 77 65 56 54 54 46 37 19 8 2
Height
1485 1487 1489 1492 1494 1496 1498 1501 1505 1509 1513 1517 1521 1524 1528 1532 1534 1537 1539 1542 1544 1546 1548 1549 1551 1552 1553 1555 1556 1557 1559 1560 1561 1563 1564 1565 1565 1566 1566 1567 1568 1569 1570
1484 1486 1488 1490 1493 1495 1497 1500 1503 1507 1511 1515 1519 1523 1527 1530 1534 1536 1538 1541 1543 1545 1546 1548 1550 1551 1552 1554 1555 1557 1558 1559 1561 1562 1563 1564 1566 1565 1565 1566 1567 1568 1569
1482 1484 1487 1489 1491 1494 1496 1498 1502 1505 1509 1513 1517 1521 1525 1529 1532 1534 1537 1539 1541 1543 1545 1547 1548 1550 1551 1553 1554 1556 1557 1558 1560 1561 1563 1563 1563 1564 1565 1565 1566 1567 1567
1481 1483 1485 1487 1489 1491 1494 1496 1500 1504 1507 1511 1515 1518 1522 1525 1529 1532 1535 1537 1540 1542 1544 1546 1547 1549 1550 1552 1553 1555 1556 1558 1559 1560 1561 1563 1563 1563 1563 1565 1565 1566 1566
1481 1482 1484 1486 1489 1491 1492 1495 1498 1502 1505 1508 1512 1517 1520 1524 1528 1531 1534 1536 1538 1541 1543 1544 1546 1548 1549 1551 1552 1554 1555 1557 1558 1560 1561 1561 1562 1563 1563 1563 1564 1564 1565
1481 1482 1484 1486 1488 1490 1491 1494 1496 1500 1503 1506 1510 1514 1518 1521 1525 1528 1531 1534 1537 1539 1541 1543 1545 1547 1548 1550 1552 1553 1555 1556 1558 1559 1560 1561 1561 1562 1562 1562 1562 1563 1563
1479 1481 1483 1485 1487 1488 1490 1492 1495 1498 1501 1504 1508 1512 1516 1519 1522 1526 1529 1532 1534 1537 1539 1541 1543 1545 1547 1549 1550 1552 1553 1555 1556 1558 1559 1560 1560 1561 1561 1561 1561 1561 1561
1478 1480 1481 1483 1485 1487 1489 1491 1493 1496 1499 1502 1506 1510 1514 1518 1521 1524 1527 1530 1533 1535 1538 1540 1542 1544 1546 1548 1549 1550 1552 1553 1555 1556 1557 1558 1559 1560 1560 1560 1560 1560 1560
1478 1479 1480 1482 1484 1486 1487 1489 1491 1494 1497 1501 1504 1508 1512 1515 1519 1522 1526 1529 1532 1534 1537 1539 1541 1543 1545 1546 1548 1549 1551 1552 1553 1555 1556 1557 1557 1558 1558 1558 1558 1559 1558
1477 1479 1480 1481 1483 1485 1487 1489 1491 1493 1496 1500 1503 1507 1510 1513 1517 1521 1524 1527 1530 1533 1535 1537 1540 1542 1543 1545 1547 1548 1550 1551 1552 1553 1554 1555 1555 1556 1556 1556 1556 1556 1556
1476 1477 1478 1480 1483 1485 1486 1488 1490 1492 1495 1498 1502 1505 1508 1512 1516 1519 1523 1526 1529 1531 1534 1536 1538 1540 1542 1544 1546 1547 1549 1550 1550 1552 1552 1553 1553 1554 1554 1554 1554 1554 1554
1474 1476 1478 1480 1482 1484 1486 1488 1490 1492 1494 1497 1500 1504 1507 1511 1514 1518 1522 1525 1527 1530 1533 1535 1537 1539 1541 1543 1545 1546 1547 1548 1549 1550 1550 1551 1551 1551 1551 1551 1551 1551 1550
1473 1475 1477 1479 1481 1483 1485 1487 1489 1491 1493 1496 1499 1502 1506 1509 1513 1517 1521 1524 1526 1529 1531 1533 1536 1538 1539 1541 1543 1544 1546 1546 1547 1548 1548 1549 1549 1549 1549 1548 1548 1548 1547
1471 1473 1476 1478 1480 1482 1484 1486 1488 1490 1492 1494 1498 1501 1505 1508 1512 1516 1519 1522 1525 1527 1530 1532 1534 1536 1538 1539 1541 1542 1543 1544 1544 1545 1546 1546 1546 1546 1546 1546 1545 1545 1544
1470 1472 1473 1476 1479 1480 1482 1484 1487 1490 1492 1494 1497 1501 1504 1508 1511 1515 1518 1520 1523 1526 1528 1530 1532 1534 1535 1537 1538 1539 1540 1541 1542 1543 1543 1544 1544 1544 1544 1543 1542 1542 1541
1468 1470 1471 1473 1476 1478 1480 1483 1485 1488 1491 1494 1497 1500 1504 1507 1510 1513 1517 1519 1522 1524 1526 1529 1530 1532 1533 1535 1536 1537 1538 1539 1540 1541 1541 1542 1542 1542 1542 1541 1540 1539 1538
1466 1468 1469 1471 1473 1476 1478 1481 1484 1487 1490 1493 1496 1500 1502 1505 1509 1512 1515 1518 1520 1523 1525 1527 1529 1531 1532 1533 1534 1536 1537 1538 1539 1540 1540 1541 1541 1540 1540 1539 1538 1537 1536
1465 1466 1468 1469 1472 1475 1478 1480 1482 1485 1488 1492 1495 1499 1502 1505 1507 1511 1513 1516 1519 1521 1524 1526 1528 1530 1531 1533 1534 1535 1536 1537 1538 1539 1539 1540 1539 1539 1538 1537 1536 1535 1534
1464 1466 1466 1468 1471 1474 1476 1479 1481 1484 1487 1491 1494 1497 1500 1503 1505 1508 1511 1514 1517 1520 1523 1525 1528 1530 1531 1533 1534 1536 1536 1537 1538 1538 1539 1539 1538 1538 1537 1536 1535 1534 1533
1463 1464 1465 1467 1469 1472 1474 1477 1480 1483 1486 1489 1492 1496 1499 1501 1503 1506 1509 1513 1516 1519 1522 1525 1528 1530 1532 1534 1535 1537 1537 1537 1538 1538 1538 1537 1537 1536 1535 1534 1533 1532 1531
1462 1463 1464 1466 1467 1470 1473 1475 1479 1482 1485 1488 1491 1495 1498 1500 1502 1505 1508 1512 1515 1518 1521 1525 1529 1531 1533 1535 1536 1537 1537 1537 1537 1537 1537 1536 1536 1535 1534 1533 1532 1531 1530
1462 1462 1463 1464 1466 1469 1471 1474 1477 1481 1484 1487 1490 1494 1497 1500 1503 1505 1509 1512 1516 1519 1522 1526 1529 1532 1534 1536 1537 1537 1537 1537 1536 1536 1536 1536 1535 1535 1534 1532 1531 1530 1529
1461 1462 1463 1464 1467 1469 1470 1473 1477 1480 1483 1487 1491 1494 1498 1501 1504 1507 1510 1514 1518 1520 1523 1527 1530 1532 1534 1536 1537 1537 1536 1536 1535 1535 1535 1535 1535 1534 1533 1532 1530 1529 1527
1461 1462 1463 1465 1468 1470 1472 1474 1477 1481 1484 1487 1492 1496 1499 1502 1506 1510 1513 1516 1519 1522 1526 1528 1531 1533 1535 1536 1536 1536 1536 1536 1536 1536 1535 1535 1534 1533 1532 1531 1529 1528 1526
1462 1463 1465 1467 1469 1472 1473 1476 1479 1482 1485 1489 1494 1498 1501 1505 1509 1513 1517 1520 1523 1526 1528 1530 1532 1533 1535 1536 1537 1537 1537 1537 1536 1536 1535 1535 1534 1533 1532 1530 1529 1527 1525
1463 1465 1467 1469 1471 1474 1476 1480 1483 1486 1488 1492 1497 1501 1505 1509 1512 1515 1519 1523 1526 1529 1531 1533 1534 1535 1536 1536 1537 1537 1538 1537 1537 1536 1535 1535 1534 1533 1532 1530 1528 1526 1524